TimeEDT,TemperatureF,Dew PointF,Humidity,Sea Level PressureIn,VisibilityMPH,Wind Direction,Wind SpeedMPH,Gust SpeedMPH,PrecipitationIn,Events,Conditions,WindDirDegrees,DateUTC
12:53 AM,50.0,44.1,80,30.16,10.0,North,3.5,-,N/A,,Clear,10,2013-09-24 04:53:00
1:53 AM,50.0,44.1,80,30.16,10.0,Calm,Calm,-,N/A,,Clear,0,2013-09-24 05:53:00
2:53 AM,48.9,44.1,83,30.16,10.0,Calm,Calm,-,N/A,,Clear,0,2013-09-24 06:53:00
3:53 AM,48.0,44.1,86,30.16,10.0,Calm,Calm,-,N/A,,Clear,0,2013-09-24 07:53:00
4:53 AM,46.0,43.0,89,30.16,10.0,Calm,Calm,-,N/A,,Clear,0,2013-09-24 08:53:00
5:53 AM,46.0,42.1,86,30.15,9.0,Calm,Calm,-,N/A,,Clear,0,2013-09-24 09:53:00
6:53 AM,46.0,42.1,86,30.16,10.0,North,3.5,-,N/A,,Clear,360,2013-09-24 10:53:00
7:53 AM,46.0,42.1,86,30.17,10.0,North,3.5,-,N/A,,Clear,360,2013-09-24 11:53:00
8:53 AM,53.1,46.0,77,30.17,10.0,NNE,3.5,-,N/A,,Clear,20,2013-09-24 12:53:00
9:53 AM,57.9,48.0,70,30.16,10.0,ENE,6.9,-,N/A,,Clear,70,2013-09-24 13:53:00
10:53 AM,61.0,48.0,62,30.15,10.0,NNE,4.6,-,N/A,,Partly Cloudy,20,2013-09-24 14:53:00
11:53 AM,61.0,48.0,62,30.14,10.0,Calm,Calm,-,N/A,,Scattered Clouds,0,2013-09-24 15:53:00
12:53 PM,62.1,46.9,58,30.12,10.0,NE,4.6,-,N/A,,Mostly Cloudy,40,2013-09-24 16:53:00
1:53 PM,64.0,46.9,54,30.09,10.0,SE,5.8,-,N/A,,Scattered Clouds,130,2013-09-24 17:53:00
2:53 PM,64.9,48.0,54,30.08,10.0,Variable,5.8,-,N/A,,Clear,0,2013-09-24 18:53:00
3:53 PM,64.9,48.0,54,30.06,10.0,Variable,6.9,-,N/A,,Clear,0,2013-09-24 19:53:00
4:53 PM,64.9,48.0,54,30.04,10.0,ESE,4.6,-,N/A,,Clear,120,2013-09-24 20:53:00
5:53 PM,64.9,46.0,50,30.04,10.0,East,5.8,-,N/A,,Clear,100,2013-09-24 21:53:00
6:53 PM,63.0,46.0,54,30.04,10.0,East,6.9,-,N/A,,Clear,90,2013-09-24 22:53:00
7:53 PM,60.1,46.0,60,30.02,10.0,East,3.5,-,N/A,,Clear,90,2013-09-24 23:53:00
8:53 PM,59.0,46.0,62,30.01,10.0,Calm,Calm,-,N/A,,Clear,0,2013-09-25 00:53:00
9:53 PM,57.0,48.0,72,30.03,10.0,Calm,Calm,-,N/A,,Clear,0,2013-09-25 01:53:00
10:53 PM,54.0,48.0,80,30.02,10.0,ENE,5.8,-,N/A,,Clear,70,2013-09-25 02:53:00
11:53 PM,54.0,48.0,80,30.03,10.0,ENE,4.6,-,N/A,,Clear,60,2013-09-25 03:53:00